| time (UTC) | temp C | wind direction | speed KPH | gust KPH | rain 1hr cm | rain 24hr cm | rain mn cm | humidity % | barometer mb |
| 20260508211727 | 17 | 267 | 1.6 | 1.6 | 0.00 | 0.00 | 0.00 | 57 | 1022.6 |
| 20260508211223 | 17 | 330 | 1.6 | 1.6 | 0.00 | 0.00 | 0.00 | 60 | 1022.8 |
| 20260508210721 | 17 | 317 | 1.6 | 1.6 | 0.00 | 0.00 | 0.00 | 61 | 1022.6 |
| 20260508210218 | 18 | 312 | 1.6 | 3.2 | 0.00 | 0.00 | 0.00 | 56 | 1022.7 |
| 20260508205714 | 17 | 311 | 0.0 | 0.0 | 0.00 | 0.00 | 0.00 | 62 | 1022.8 |
| 20260508205211 | 17 | 297 | 0.0 | 1.6 | 0.00 | 0.00 | 0.00 | 59 | 1022.8 |
| 20260508204707 | 17 | 182 | 3.2 | 4.8 | 0.00 | 0.00 | 0.00 | 57 | 1022.7 |
| 20260508204203 | 17 | 284 | 1.6 | 1.6 | 0.00 | 0.00 | 0.00 | 58 | 1022.6 |
| 20260508203659 | 17 | 160 | 0.0 | 0.0 | 0.00 | 0.00 | 0.00 | 57 | 1022.8 |
| 20260508203156 | 16 | 310 | 0.0 | 0.0 | 0.00 | 0.00 | 0.00 | 61 | 1022.9 |
| 20260508202652 | 16 | 327 | 3.2 | 4.8 | 0.00 | 0.00 | 0.00 | 60 | 1022.8 |
| 20260508202149 | 16 | 306 | 3.2 | 3.2 | 0.00 | 0.00 | 0.00 | 60 | 1022.9 |
| 20260508201646 | 17 | 303 | 1.6 | 3.2 | 0.00 | 0.00 | 0.00 | 61 | 1022.9 |
| 20260508201143 | 16 | 55 | 3.2 | 4.8 | 0.00 | 0.00 | 0.00 | 58 | 1022.8 |
| 20260508200640 | 17 | 315 | 0.0 | 0.0 | 0.00 | 0.00 | 0.00 | 63 | 1022.9 |
| 20260508200136 | 17 | 294 | 0.0 | 1.6 | 0.00 | 0.00 | 0.00 | 61 | 1023.1 |
| 20260508195632 | 16 | 243 | 1.6 | 3.2 | 0.00 | 0.00 | 0.00 | 60 | 1023.1 |
| 20260508195129 | 17 | 309 | 1.6 | 3.2 | 0.00 | 0.00 | 0.00 | 57 | 1023.3 |
| 20260508194626 | 16 | 295 | 0.0 | 1.6 | 0.00 | 0.00 | 0.00 | 58 | 1023.3 |
| 20260508194123 | 16 | 296 | 0.0 | 0.0 | 0.00 | 0.00 | 0.00 | 60 | 1023.2 |
| 20260508193620 | 15 | 282 | 0.0 | 1.6 | 0.00 | 0.00 | 0.00 | 65 | 1023.0 |
| 20260508193116 | 15 | 222 | 1.6 | 1.6 | 0.00 | 0.00 | 0.00 | 63 | 1023.1 |
| 20260508192613 | 15 | 322 | 4.8 | 8.0 | 0.00 | 0.00 | 0.00 | 63 | 1023.0 |
| 20260508192110 | 15 | 301 | 4.8 | 4.8 | 0.00 | 0.00 | 0.00 | 63 | 1023.2 |
| 20260508191607 | 15 | 315 | 0.0 | 0.0 | 0.00 | 0.00 | 0.00 | 65 | 1023.2 |
| 20260508191103 | 15 | 307 | 1.6 | 3.2 | 0.00 | 0.00 | 0.00 | 64 | 1023.4 |
| 20260508190600 | 15 | 300 | 9.7 | 9.7 | 0.00 | 0.00 | 0.00 | 61 | 1023.3 |
| 20260508190057 | 15 | 322 | 1.6 | 3.2 | 0.00 | 0.00 | 0.00 | 64 | 1023.1 |
| 20260508185554 | 15 | 309 | 0.0 | 0.0 | 0.00 | 0.00 | 0.00 | 64 | 1023.3 |
| 20260508185052 | 15 | 303 | 1.6 | 1.6 | 0.00 | 0.00 | 0.00 | 63 | 1023.3 |
| 20260508184549 | 15 | 310 | 0.0 | 1.6 | 0.00 | 0.00 | 0.00 | 66 | 1023.4 |
| 20260508184046 | 15 | 296 | 0.0 | 1.6 | 0.00 | 0.00 | 0.00 | 63 | 1023.5 |
| 20260508183542 | 15 | 293 | 1.6 | 1.6 | 0.00 | 0.00 | 0.00 | 66 | 1023.2 |
| 20260508183038 | 15 | 310 | 1.6 | 3.2 | 0.00 | 0.00 | 0.00 | 68 | 1023.3 |
| 20260508182535 | 15 | 312 | 0.0 | 1.6 | 0.00 | 0.00 | 0.00 | 65 | 1023.3 |
| 20260508182031 | 15 | 292 | 1.6 | 1.6 | 0.00 | 0.00 | 0.00 | 65 | 1023.3 |
| 20260508181527 | 14 | 312 | 1.6 | 1.6 | 0.00 | 0.00 | 0.00 | 67 | 1023.1 |
| 20260508181025 | 14 | 318 | 0.0 | 1.6 | 0.00 | 0.00 | 0.00 | 70 | 1023.3 |
| 20260508180521 | 13 | 317 | 3.2 | 3.2 | 0.00 | 0.00 | 0.00 | 70 | 1023.0 |
| 20260508180017 | 13 | 315 | 4.8 | 4.8 | 0.00 | 0.00 | 0.00 | 70 | 1023.4 |
| 20260508175514 | 14 | 296 | 6.4 | 8.0 | 0.00 | 0.00 | 0.00 | 70 | 1023.1 |
| 20260508175011 | 15 | 295 | 0.0 | 1.6 | 0.00 | 0.00 | 0.00 | 68 | 1023.0 |
| 20260508174509 | 15 | 302 | 1.6 | 1.6 | 0.00 | 0.00 | 0.00 | 69 | 1022.9 |
| 20260508174006 | 15 | 120 | 3.2 | 4.8 | 0.00 | 0.00 | 0.00 | 69 | 1023.2 |
| 20260508173503 | 15 | 276 | 0.0 | 1.6 | 0.00 | 0.00 | 0.00 | 70 | 1022.9 |
| 20260508172959 | 15 | 297 | 0.0 | 0.0 | 0.00 | 0.00 | 0.00 | 71 | 1022.9 |
| 20260508172456 | 14 | 301 | 0.0 | 0.0 | 0.00 | 0.00 | 0.00 | 72 | 1023.0 |
| 20260508171952 | 13 | 281 | 1.6 | 1.6 | 0.00 | 0.00 | 0.00 | 73 | 1022.7 |
| 20260508171449 | 13 | 315 | 0.0 | 0.0 | 0.00 | 0.00 | 0.00 | 74 | 1022.7 |
| 20260508170945 | 14 | 291 | 0.0 | 0.0 | 0.00 | 0.00 | 0.00 | 71 | 1022.6 |
| 20260508170443 | 13 | 311 | 1.6 | 1.6 | 0.00 | 0.00 | 0.00 | 73 | 1022.7 |
| 20260508165939 | 13 | 297 | 0.0 | 1.6 | 0.00 | 0.00 | 0.00 | 75 | 1022.6 |
| 20260508165438 | 12 | 299 | 1.6 | 1.6 | 0.00 | 0.00 | 0.00 | 76 | 1022.6 |
| 20260508164933 | 12 | 306 | 1.6 | 1.6 | 0.00 | 0.00 | 0.00 | 75 | 1022.2 |
| 20260508164430 | 12 | 312 | 0.0 | 0.0 | 0.00 | 0.00 | 0.00 | 76 | 1022.1 |
| 20260508163927 | 12 | 309 | 3.2 | 3.2 | 0.00 | 0.00 | 0.00 | 75 | 1022.0 |
| 20260508163425 | 13 | 296 | 0.0 | 1.6 | 0.00 | 0.00 | 0.00 | 75 | 1022.2 |
| 20260508162920 | 13 | 302 | 0.0 | 1.6 | 0.00 | 0.00 | 0.00 | 75 | 1022.1 |
| 20260508162418 | 13 | 286 | 1.6 | 1.6 | 0.00 | 0.00 | 0.00 | 71 | 1022.3 |
| 20260508161915 | 13 | 300 | 0.0 | 0.0 | 0.00 | 0.00 | 0.00 | 75 | 1022.2 |
| 20260508161412 | 13 | 316 | 0.0 | 0.0 | 0.00 | 0.00 | 0.00 | 76 | 1022.2 |
| 20260508160909 | 12 | 308 | 0.0 | 1.6 | 0.00 | 0.00 | 0.00 | 75 | 1022.0 |
| 20260508160408 | 12 | 290 | 0.0 | 0.0 | 0.00 | 0.00 | 0.00 | 77 | 1022.1 |
| 20260508155903 | 12 | 67 | 3.2 | 3.2 | 0.00 | 0.00 | 0.00 | 75 | 1022.1 |
| 20260508155401 | 12 | 328 | 0.0 | 1.6 | 0.00 | 0.00 | 0.00 | 76 | 1021.8 |
| 20260508154858 | 11 | 294 | 0.0 | 1.6 | 0.00 | 0.00 | 0.00 | 78 | 1021.8 |
| 20260508154355 | 12 | 42 | 0.0 | 0.0 | 0.00 | 0.00 | 0.00 | 77 | 1022.0 |
| 20260508153852 | 11 | 281 | 3.2 | 3.2 | 0.00 | 0.00 | 0.00 | 78 | 1021.9 |
| 20260508153349 | 11 | 295 | 0.0 | 0.0 | 0.00 | 0.00 | 0.00 | 79 | 1021.8 |
| 20260508152845 | 11 | 80 | 0.0 | 0.0 | 0.00 | 0.00 | 0.00 | 79 | 1022.0 |
| 20260508152342 | 12 | 81 | 1.6 | 1.6 | 0.00 | 0.00 | 0.00 | 78 | 1022.3 |
| 20260508151838 | 12 | 55 | 0.0 | 0.0 | 0.00 | 0.00 | 0.00 | 80 | 1022.0 |
| 20260508151335 | 11 | 50 | 0.0 | 0.0 | 0.00 | 0.00 | 0.00 | 80 | 1022.4 |
| 20260508150831 | 11 | 49 | 0.0 | 0.0 | 0.00 | 0.00 | 0.00 | 81 | 1022.2 |
| 20260508150328 | 11 | 49 | 0.0 | 1.6 | 0.00 | 0.00 | 0.00 | 81 | 1022.2 |
| 20260508145824 | 11 | 49 | 0.0 | 0.0 | 0.00 | 0.00 | 0.00 | 80 | 1022.3 |
| 20260508145321 | 11 | 50 | 0.0 | 1.6 | 0.00 | 0.00 | 0.00 | 81 | 1022.1 |
| 20260508144818 | 11 | 51 | 0.0 | 0.0 | 0.00 | 0.00 | 0.00 | 81 | 1022.2 |
| 20260508144316 | 11 | 51 | 0.0 | 0.0 | 0.00 | 0.00 | 0.00 | 81 | 1022.3 |
| 20260508143813 | 11 | 53 | 1.6 | 1.6 | 0.00 | 0.00 | 0.00 | 79 | 1022.3 |
| 20260508143310 | 11 | 321 | 0.0 | 1.6 | 0.00 | 0.00 | 0.00 | 81 | 1022.2 |
| 20260508142807 | 11 | 318 | 0.0 | 1.6 | 0.00 | 0.00 | 0.00 | 82 | 1022.3 |
| 20260508142306 | 11 | 320 | 0.0 | 1.6 | 0.00 | 0.00 | 0.00 | 82 | 1022.2 |
| 20260508141759 | 11 | 297 | 0.0 | 1.6 | 0.00 | 0.00 | 0.00 | 81 | 1022.4 |
| 20260508141257 | 11 | 299 | 0.0 | 0.0 | 0.00 | 0.00 | 0.00 | 84 | 1021.6 |
| 20260508140754 | 10 | 299 | 0.0 | 0.0 | 0.00 | 0.00 | 0.00 | 87 | 1022.0 |
| 20260508140251 | 9 | 299 | 0.0 | 0.0 | 0.00 | 0.00 | 0.00 | 89 | 1021.5 |
| 20260508135747 | 8 | 299 | 0.0 | 1.6 | 0.00 | 0.00 | 0.00 | 91 | 1021.8 |
| 20260508135243 | 8 | 299 | 0.0 | 0.0 | 0.00 | 0.00 | 0.00 | 91 | 1021.3 |
| 20260508134739 | 8 | 299 | 0.0 | 0.0 | 0.00 | 0.00 | 0.00 | 92 | 1021.4 |
| 20260508134237 | 8 | 299 | 0.0 | 0.0 | 0.00 | 0.00 | 0.00 | 92 | 1021.1 |
| 20260508133733 | 8 | 300 | 0.0 | 0.0 | 0.00 | 0.00 | 0.00 | 92 | 1021.2 |
| 20260508133231 | 8 | 300 | 0.0 | 0.0 | 0.00 | 0.00 | 0.00 | 92 | 1021.0 |
| 20260508132728 | 8 | 300 | 0.0 | 0.0 | 0.00 | 0.00 | 0.00 | 92 | 1020.8 |
| 20260508132226 | 8 | 300 | 0.0 | 0.0 | 0.00 | 0.00 | 0.00 | 92 | 1020.9 |
| 20260508131721 | 8 | 300 | 0.0 | 0.0 | 0.00 | 0.00 | 0.00 | 92 | 1020.8 |
| 20260508131218 | 8 | 300 | 0.0 | 0.0 | 0.00 | 0.00 | 0.00 | 91 | 1020.5 |
| 20260508130714 | 8 | 300 | 0.0 | 0.0 | 0.00 | 0.00 | 0.00 | 90 | 1020.3 |
| 20260508130212 | 8 | 300 | 0.0 | 0.0 | 0.00 | 0.00 | 0.00 | 89 | 1020.3 |
| 20260508125707 | 8 | 300 | 0.0 | 0.0 | 0.00 | 0.00 | 0.00 | 88 | 1020.1 |
| 20260508125203 | 9 | 300 | 0.0 | 0.0 | 0.00 | 0.00 | 0.00 | 87 | 1020.0 |
| 20260508124702 | 9 | 300 | 0.0 | 0.0 | 0.00 | 0.00 | 0.00 | 87 | 1020.1 |
| 20260508124158 | 10 | 300 | 0.0 | 0.0 | 0.00 | 0.00 | 0.00 | 86 | 1020.2 |
| 20260508123657 | 10 | 300 | 0.0 | 0.0 | 0.00 | 0.00 | 0.00 | 86 | 1019.9 |
| 20260508123155 | 10 | 299 | 0.0 | 0.0 | 0.00 | 0.00 | 0.00 | 86 | 1020.0 |
| 20260508122650 | 10 | 300 | 0.0 | 0.0 | 0.00 | 0.00 | 0.00 | 86 | 1020.0 |
| 20260508122147 | 10 | 300 | 0.0 | 0.0 | 0.00 | 0.00 | 0.00 | 85 | 1020.0 |
| 20260508121645 | 10 | 300 | 0.0 | 0.0 | 0.00 | 0.00 | 0.00 | 86 | 1020.0 |
| 20260508121143 | 10 | 300 | 0.0 | 0.0 | 0.00 | 0.00 | 0.00 | 86 | 1020.1 |
| 20260508120640 | 10 | 300 | 0.0 | 0.0 | 0.00 | 0.00 | 0.00 | 87 | 1019.7 |
| 20260508120139 | 10 | 300 | 0.0 | 0.0 | 0.00 | 0.00 | 0.00 | 88 | 1019.9 |
| 20260508115636 | 10 | 300 | 0.0 | 0.0 | 0.00 | 0.00 | 0.00 | 88 | 1019.7 |
| 20260508115132 | 10 | 300 | 0.0 | 0.0 | 0.00 | 0.00 | 0.00 | 88 | 1019.6 |
| 20260508114630 | 10 | 300 | 0.0 | 0.0 | 0.00 | 0.00 | 0.00 | 89 | 1019.6 |
| 20260508114125 | 10 | 300 | 0.0 | 0.0 | 0.00 | 0.00 | 0.00 | 89 | 1019.4 |
| 20260508113623 | 10 | 300 | 0.0 | 0.0 | 0.00 | 0.00 | 0.00 | 88 | 1019.5 |
| 20260508113121 | 10 | 300 | 0.0 | 0.0 | 0.00 | 0.00 | 0.00 | 89 | 1019.6 |
| 20260508112617 | 10 | 300 | 0.0 | 0.0 | 0.00 | 0.00 | 0.00 | 89 | 1019.5 |
| 20260508112114 | 10 | 300 | 0.0 | 0.0 | 0.00 | 0.00 | 0.00 | 89 | 1019.2 |
| 20260508111611 | 10 | 300 | 0.0 | 0.0 | 0.00 | 0.00 | 0.00 | 89 | 1019.4 |
| 20260508111108 | 10 | 300 | 0.0 | 0.0 | 0.00 | 0.00 | 0.00 | 90 | 1019.0 |
| 20260508110606 | 10 | 300 | 0.0 | 0.0 | 0.00 | 0.00 | 0.00 | 91 | 1019.1 |
| 20260508105557 | 9 | 304 | 0.0 | 0.0 | 0.00 | 0.00 | 0.00 | 93 | 1019.1 |
| 20260508105054 | 9 | 304 | 0.0 | 0.0 | 0.00 | 0.00 | 0.00 | 93 | 1019.0 |
| 20260508104552 | 9 | 304 | 0.0 | 0.0 | 0.00 | 0.00 | 0.00 | 92 | 1018.8 |
| 20260508104048 | 9 | 304 | 0.0 | 0.0 | 0.00 | 0.00 | 0.00 | 92 | 1018.8 |
| 20260508103545 | 9 | 304 | 0.0 | 0.0 | 0.00 | 0.00 | 0.00 | 92 | 1018.9 |
| 20260508103043 | 9 | 304 | 0.0 | 0.0 | 0.00 | 0.00 | 0.00 | 92 | 1018.7 |
| 20260508102540 | 9 | 304 | 0.0 | 0.0 | 0.00 | 0.00 | 0.00 | 93 | 1018.8 |
| 20260508102038 | 9 | 304 | 0.0 | 0.0 | 0.00 | 0.00 | 0.00 | 93 | 1018.7 |
| 20260508101535 | 9 | 304 | 0.0 | 0.0 | 0.00 | 0.00 | 0.00 | 93 | 1018.8 |
| 20260508101032 | 9 | 304 | 0.0 | 0.0 | 0.00 | 0.00 | 0.00 | 92 | 1018.7 |
| 20260508100530 | 9 | 304 | 0.0 | 0.0 | 0.00 | 0.00 | 0.00 | 92 | 1018.5 |
| 20260508100027 | 9 | 304 | 0.0 | 0.0 | 0.00 | 0.00 | 0.00 | 91 | 1018.6 |
| 20260508095524 | 9 | 304 | 0.0 | 0.0 | 0.00 | 0.00 | 0.00 | 91 | 1018.6 |
| 20260508095021 | 10 | 304 | 0.0 | 0.0 | 0.00 | 0.00 | 0.00 | 91 | 1018.3 |
| 20260508094518 | 10 | 304 | 0.0 | 0.0 | 0.00 | 0.00 | 0.00 | 91 | 1018.3 |
| 20260508094015 | 10 | 304 | 0.0 | 0.0 | 0.00 | 0.00 | 0.00 | 91 | 1018.4 |
| 20260508093512 | 10 | 304 | 0.0 | 0.0 | 0.00 | 0.00 | 0.00 | 91 | 1018.4 |
| 20260508093010 | 9 | 304 | 0.0 | 0.0 | 0.00 | 0.00 | 0.00 | 91 | 1018.4 |
| 20260508092507 | 9 | 304 | 0.0 | 0.0 | 0.00 | 0.00 | 0.00 | 91 | 1018.5 |
| 20260508092006 | 10 | 304 | 0.0 | 0.0 | 0.00 | 0.00 | 0.00 | 90 | 1018.3 |
| 20260508091502 | 10 | 304 | 0.0 | 0.0 | 0.00 | 0.00 | 0.00 | 90 | 1018.4 |
| 20260508090959 | 10 | 304 | 0.0 | 0.0 | 0.00 | 0.00 | 0.00 | 90 | 1018.4 |
| 20260508090457 | 10 | 304 | 0.0 | 0.0 | 0.00 | 0.00 | 0.00 | 90 | 1018.2 |
| 20260508085953 | 10 | 304 | 0.0 | 0.0 | 0.00 | 0.00 | 0.00 | 90 | 1018.1 |
| 20260508085450 | 10 | 304 | 0.0 | 0.0 | 0.00 | 0.00 | 0.00 | 90 | 1018.2 |
| 20260508084947 | 10 | 304 | 0.0 | 0.0 | 0.00 | 0.00 | 0.00 | 89 | 1018.2 |
| 20260508084444 | 10 | 304 | 0.0 | 0.0 | 0.00 | 0.00 | 0.00 | 89 | 1018.2 |
| 20260508083942 | 10 | 304 | 0.0 | 0.0 | 0.00 | 0.00 | 0.00 | 89 | 1017.9 |
| 20260508083438 | 10 | 304 | 0.0 | 0.0 | 0.00 | 0.00 | 0.00 | 88 | 1018.0 |
| 20260508082938 | 10 | 304 | 0.0 | 0.0 | 0.00 | 0.00 | 0.00 | 89 | 1018.0 |
| 20260508082436 | 10 | 304 | 0.0 | 0.0 | 0.00 | 0.00 | 0.00 | 89 | 1018.2 |
| 20260508081934 | 10 | 304 | 0.0 | 0.0 | 0.00 | 0.00 | 0.00 | 89 | 1017.8 |
| 20260508081430 | 10 | 304 | 0.0 | 0.0 | 0.00 | 0.00 | 0.00 | 89 | 1017.9 |
| 20260508080926 | 10 | 304 | 0.0 | 0.0 | 0.00 | 0.00 | 0.00 | 89 | 1017.9 |
| 20260508080425 | 10 | 304 | 0.0 | 0.0 | 0.00 | 0.00 | 0.00 | 89 | 1018.1 |
| 20260508075921 | 10 | 304 | 0.0 | 0.0 | 0.00 | 0.00 | 0.00 | 88 | 1018.0 |
| 20260508075418 | 10 | 304 | 0.0 | 0.0 | 0.00 | 0.00 | 0.00 | 87 | 1017.8 |
| 20260508074916 | 10 | 304 | 0.0 | 0.0 | 0.00 | 0.00 | 0.00 | 87 | 1017.9 |
| 20260508074413 | 10 | 304 | 0.0 | 0.0 | 0.00 | 0.00 | 0.00 | 86 | 1017.9 |
| 20260508073910 | 10 | 304 | 0.0 | 0.0 | 0.00 | 0.00 | 0.00 | 86 | 1018.0 |
| 20260508073408 | 10 | 304 | 0.0 | 0.0 | 0.00 | 0.00 | 0.00 | 85 | 1017.8 |
| 20260508072904 | 10 | 304 | 0.0 | 0.0 | 0.00 | 0.00 | 0.00 | 84 | 1017.7 |
| 20260508072401 | 11 | 304 | 0.0 | 0.0 | 0.00 | 0.00 | 0.00 | 82 | 1017.8 |
| 20260508071858 | 11 | 304 | 0.0 | 0.0 | 0.00 | 0.00 | 0.00 | 82 | 1017.7 |
| 20260508071356 | 11 | 304 | 0.0 | 0.0 | 0.00 | 0.00 | 0.00 | 82 | 1017.7 |
| 20260508070853 | 11 | 304 | 0.0 | 0.0 | 0.00 | 0.00 | 0.00 | 81 | 1017.8 |
| 20260508070351 | 11 | 304 | 0.0 | 0.0 | 0.00 | 0.00 | 0.00 | 82 | 1017.8 |
| 20260508065849 | 11 | 304 | 0.0 | 0.0 | 0.00 | 0.00 | 0.00 | 81 | 1017.6 |
| 20260508065347 | 11 | 304 | 0.0 | 0.0 | 0.00 | 0.00 | 0.00 | 81 | 1017.8 |
| 20260508064845 | 11 | 304 | 0.0 | 0.0 | 0.00 | 0.00 | 0.00 | 81 | 1017.8 |
| 20260508064342 | 11 | 304 | 0.0 | 0.0 | 0.00 | 0.00 | 0.00 | 82 | 1017.8 |
| 20260508063839 | 11 | 304 | 0.0 | 0.0 | 0.00 | 0.00 | 0.00 | 81 | 1017.7 |
| 20260508063337 | 11 | 304 | 0.0 | 0.0 | 0.00 | 0.00 | 0.00 | 82 | 1017.8 |
| 20260508062834 | 11 | 304 | 0.0 | 0.0 | 0.00 | 0.00 | 0.00 | 82 | 1017.9 |
| 20260508062331 | 11 | 304 | 0.0 | 0.0 | 0.00 | 0.00 | 0.00 | 82 | 1017.8 |
| 20260508061828 | 11 | 304 | 0.0 | 0.0 | 0.00 | 0.00 | 0.00 | 82 | 1017.6 |
| 20260508061326 | 11 | 304 | 0.0 | 0.0 | 0.00 | 0.00 | 0.00 | 82 | 1017.7 |
| 20260508060822 | 11 | 304 | 0.0 | 0.0 | 0.00 | 0.00 | 0.00 | 81 | 1017.6 |
| 20260508060320 | 11 | 304 | 0.0 | 0.0 | 0.00 | 0.00 | 0.00 | 80 | 1017.8 |
| 20260508055815 | 11 | 304 | 0.0 | 0.0 | 0.00 | 0.00 | 0.00 | 81 | 1017.6 |
| 20260508055313 | 11 | 304 | 0.0 | 0.0 | 0.00 | 0.00 | 0.00 | 80 | 1017.6 |
| 20260508054809 | 11 | 305 | 0.0 | 0.0 | 0.00 | 0.00 | 0.00 | 80 | 1017.6 |
| 20260508054307 | 12 | 305 | 0.0 | 0.0 | 0.00 | 0.00 | 0.00 | 79 | 1017.6 |
| 20260508053803 | 12 | 304 | 0.0 | 0.0 | 0.00 | 0.00 | 0.00 | 78 | 1017.5 |
| 20260508053301 | 12 | 304 | 0.0 | 0.0 | 0.00 | 0.00 | 0.00 | 78 | 1017.6 |
| 20260508052758 | 12 | 305 | 0.0 | 0.0 | 0.00 | 0.00 | 0.00 | 77 | 1017.6 |
| 20260508052255 | 12 | 305 | 0.0 | 0.0 | 0.00 | 0.00 | 0.00 | 77 | 1017.5 |
| 20260508051751 | 12 | 305 | 0.0 | 0.0 | 0.00 | 0.00 | 0.00 | 76 | 1017.6 |
| 20260508051246 | 12 | 305 | 0.0 | 0.0 | 0.00 | 0.00 | 0.00 | 76 | 1017.6 |
| 20260508050743 | 12 | 305 | 0.0 | 0.0 | 0.00 | 0.00 | 0.00 | 75 | 1017.3 |
| 20260508050240 | 13 | 305 | 0.0 | 0.0 | 0.00 | 0.00 | 0.00 | 75 | 1017.4 |
| 20260508045735 | 13 | 305 | 0.0 | 0.0 | 0.00 | 0.00 | 0.00 | 72 | 1017.6 |
| 20260508045234 | 13 | 305 | 0.0 | 0.0 | 0.00 | 0.00 | 0.00 | 73 | 1017.5 |
| 20260508044731 | 13 | 305 | 0.0 | 0.0 | 0.00 | 0.00 | 0.00 | 74 | 1017.6 |
| 20260508044228 | 13 | 305 | 0.0 | 0.0 | 0.00 | 0.00 | 0.00 | 74 | 1017.5 |
| 20260508043724 | 13 | 305 | 0.0 | 0.0 | 0.00 | 0.00 | 0.00 | 74 | 1017.3 |
| 20260508043221 | 13 | 305 | 0.0 | 0.0 | 0.00 | 0.00 | 0.00 | 73 | 1017.5 |
| 20260508042718 | 13 | 305 | 0.0 | 0.0 | 0.00 | 0.00 | 0.00 | 70 | 1017.7 |
| 20260508042215 | 13 | 305 | 0.0 | 0.0 | 0.00 | 0.00 | 0.00 | 69 | 1017.3 |
| 20260508041711 | 13 | 305 | 0.0 | 0.0 | 0.00 | 0.00 | 0.00 | 68 | 1017.3 |
| 20260508041209 | 14 | 305 | 0.0 | 0.0 | 0.00 | 0.00 | 0.00 | 68 | 1017.4 |
| 20260508040705 | 14 | 305 | 0.0 | 0.0 | 0.00 | 0.00 | 0.00 | 67 | 1017.3 |
| 20260508040202 | 15 | 305 | 0.0 | 0.0 | 0.00 | 0.00 | 0.00 | 66 | 1017.2 |
| 20260508035659 | 15 | 305 | 0.0 | 0.0 | 0.00 | 0.00 | 0.00 | 65 | 1017.4 |
| 20260508035157 | 15 | 305 | 0.0 | 0.0 | 0.00 | 0.00 | 0.00 | 64 | 1017.3 |
| 20260508034653 | 15 | 305 | 0.0 | 0.0 | 0.00 | 0.00 | 0.00 | 63 | 1017.3 |
| 20260508034150 | 15 | 305 | 0.0 | 0.0 | 0.00 | 0.00 | 0.00 | 63 | 1017.2 |
| 20260508033648 | 16 | 305 | 0.0 | 0.0 | 0.00 | 0.00 | 0.00 | 59 | 1017.1 |
| 20260508033146 | 16 | 305 | 0.0 | 0.0 | 0.00 | 0.00 | 0.00 | 60 | 1016.9 |
| 20260508032643 | 17 | 305 | 0.0 | 0.0 | 0.00 | 0.00 | 0.00 | 59 | 1016.8 |
| 20260508032140 | 17 | 305 | 0.0 | 0.0 | 0.00 | 0.00 | 0.00 | 56 | 1017.0 |
| 20260508031637 | 17 | 305 | 0.0 | 0.0 | 0.00 | 0.00 | 0.00 | 56 | 1016.8 |
| 20260508031133 | 17 | 305 | 0.0 | 0.0 | 0.00 | 0.00 | 0.00 | 55 | 1016.7 |
| 20260508030629 | 18 | 305 | 0.0 | 0.0 | 0.00 | 0.00 | 0.00 | 53 | 1016.5 |
| 20260508030127 | 18 | 305 | 0.0 | 0.0 | 0.00 | 0.00 | 0.00 | 54 | 1016.8 |
| 20260508025623 | 18 | 305 | 0.0 | 0.0 | 0.00 | 0.00 | 0.00 | 52 | 1016.8 |
| 20260508025121 | 19 | 305 | 0.0 | 0.0 | 0.00 | 0.00 | 0.00 | 49 | 1016.9 |
| 20260508024617 | 19 | 305 | 0.0 | 0.0 | 0.00 | 0.00 | 0.00 | 47 | 1016.8 |
| 20260508024114 | 19 | 305 | 0.0 | 0.0 | 0.00 | 0.00 | 0.00 | 48 | 1016.9 |
| 20260508023610 | 20 | 305 | 0.0 | 0.0 | 0.00 | 0.00 | 0.00 | 48 | 1016.9 |
| 20260508023108 | 20 | 305 | 0.0 | 0.0 | 0.00 | 0.00 | 0.00 | 50 | 1017.0 |
| 20260508022603 | 20 | 305 | 0.0 | 0.0 | 0.00 | 0.00 | 0.00 | 47 | 1017.0 |
| 20260508022101 | 20 | 305 | 0.0 | 0.0 | 0.00 | 0.00 | 0.00 | 47 | 1017.1 |
| 20260508021556 | 21 | 305 | 0.0 | 0.0 | 0.00 | 0.00 | 0.00 | 47 | 1017.1 |
| 20260508021052 | 22 | 305 | 1.6 | 1.6 | 0.00 | 0.00 | 0.00 | 45 | 1017.4 |
| 20260508020550 | 22 | 305 | 0.0 | 0.0 | 0.00 | 0.00 | 0.00 | 41 | 1017.3 |
| 20260508020048 | 23 | 305 | 0.0 | 0.0 | 0.00 | 0.00 | 0.00 | 42 | 1017.6 |
| 20260508015545 | 22 | 313 | 0.0 | 0.0 | 0.00 | 0.00 | 0.00 | 42 | 1017.1 |
| 20260508015042 | 22 | 328 | 0.0 | 0.0 | 0.00 | 0.00 | 0.00 | 42 | 1017.1 |
| 20260508014538 | 21 | 331 | 0.0 | 0.0 | 0.00 | 0.00 | 0.00 | 42 | 1017.2 |
| 20260508014034 | 21 | 302 | 1.6 | 3.2 | 0.00 | 0.00 | 0.00 | 41 | 1017.3 |
| 20260508013530 | 21 | 302 | 0.0 | 1.6 | 0.00 | 0.00 | 0.00 | 41 | 1017.3 |
| 20260508013028 | 21 | 10 | 4.8 | 4.8 | 0.00 | 0.00 | 0.00 | 41 | 1017.0 |
| 20260508012525 | 21 | 314 | 0.0 | 1.6 | 0.00 | 0.00 | 0.00 | 43 | 1017.0 |
| 20260508012022 | 21 | 307 | 1.6 | 1.6 | 0.00 | 0.00 | 0.00 | 45 | 1017.1 |
| 20260508011521 | 21 | 302 | 0.0 | 1.6 | 0.00 | 0.00 | 0.00 | 42 | 1017.1 |
| 20260508011018 | 21 | 306 | 1.6 | 1.6 | 0.00 | 0.00 | 0.00 | 44 | 1017.3 |
| 20260508010514 | 21 | 314 | 1.6 | 1.6 | 0.00 | 0.00 | 0.00 | 43 | 1017.2 |
| 20260508010012 | 21 | 303 | 3.2 | 3.2 | 0.00 | 0.00 | 0.00 | 43 | 1017.2 |
| 20260508005508 | 21 | 315 | 0.0 | 1.6 | 0.00 | 0.00 | 0.00 | 43 | 1017.5 |
| 20260508005005 | 21 | 304 | 0.0 | 0.0 | 0.00 | 0.00 | 0.00 | 42 | 1017.1 |
| 20260508004501 | 21 | 308 | 3.2 | 3.2 | 0.00 | 0.00 | 0.00 | 43 | 1017.4 |
| 20260508003958 | 21 | 306 | 1.6 | 3.2 | 0.00 | 0.00 | 0.00 | 44 | 1017.5 |
| 20260508003454 | 21 | 297 | 0.0 | 1.6 | 0.00 | 0.00 | 0.00 | 42 | 1017.3 |
| 20260508002952 | 21 | 297 | 1.6 | 1.6 | 0.00 | 0.00 | 0.00 | 42 | 1017.5 |
| 20260508002448 | 21 | 302 | 0.0 | 1.6 | 0.00 | 0.00 | 0.00 | 43 | 1017.3 |
| 20260508001944 | 21 | 288 | 0.0 | 1.6 | 0.00 | 0.00 | 0.00 | 39 | 1017.4 |
| 20260508001441 | 21 | 321 | 0.0 | 0.0 | 0.00 | 0.00 | 0.00 | 37 | 1017.5 |
| 20260508000937 | 21 | 322 | 0.0 | 1.6 | 0.00 | 0.00 | 0.00 | 36 | 1017.5 |
| 20260508000434 | 21 | 298 | 4.8 | 4.8 | 0.00 | 0.00 | 0.00 | 36 | 1017.6 |
| 20260507235930 | 21 | 300 | 0.0 | 1.6 | 0.00 | 0.00 | 0.00 | 37 | 1017.6 |
| 20260507235427 | 21 | 290 | 1.6 | 1.6 | 0.00 | 0.00 | 0.00 | 35 | 1017.7 |
| 20260507234924 | 20 | 294 | 0.0 | 0.0 | 0.00 | 0.00 | 0.00 | 37 | 1017.8 |
| 20260507234421 | 20 | 304 | 1.6 | 4.8 | 0.00 | 0.00 | 0.00 | 36 | 1017.8 |
| 20260507233917 | 20 | 297 | 0.0 | 0.0 | 0.00 | 0.00 | 0.00 | 37 | 1017.7 |
| 20260507233414 | 20 | 315 | 0.0 | 1.6 | 0.00 | 0.00 | 0.00 | 36 | 1017.9 |
| 20260507232913 | 20 | 305 | 0.0 | 0.0 | 0.00 | 0.00 | 0.00 | 38 | 1017.9 |
| 20260507232409 | 20 | 348 | 0.0 | 0.0 | 0.00 | 0.00 | 0.00 | 38 | 1018.2 |
| 20260507231907 | 20 | 302 | 1.6 | 3.2 | 0.00 | 0.00 | 0.00 | 36 | 1018.0 |
| 20260507231403 | 20 | 286 | 0.0 | 1.6 | 0.00 | 0.00 | 0.00 | 39 | 1018.1 |
| 20260507230859 | 20 | 282 | 4.8 | 8.0 | 0.00 | 0.00 | 0.00 | 40 | 1018.2 |
| 20260507230357 | 20 | 280 | 1.6 | 1.6 | 0.00 | 0.00 | 0.00 | 38 | 1018.1 |
| 20260507225856 | 20 | 290 | 1.6 | 1.6 | 0.00 | 0.00 | 0.00 | 40 | 1018.1 |
| 20260507225353 | 20 | 320 | 0.0 | 1.6 | 0.00 | 0.00 | 0.00 | 41 | 1018.3 |
| 20260507224849 | 20 | 302 | 1.6 | 3.2 | 0.00 | 0.00 | 0.00 | 40 | 1018.6 |
| 20260507224346 | 20 | 317 | 1.6 | 3.2 | 0.00 | 0.00 | 0.00 | 40 | 1018.5 |
| 20260507223841 | 20 | 311 | 8.0 | 9.7 | 0.00 | 0.00 | 0.00 | 43 | 1018.5 |
| 20260507223338 | 20 | 28 | 1.6 | 1.6 | 0.00 | 0.00 | 0.00 | 43 | 1018.5 |
| 20260507222835 | 20 | 296 | 1.6 | 1.6 | 0.00 | 0.00 | 0.00 | 43 | 1018.6 |
| 20260507222332 | 20 | 315 | 0.0 | 1.6 | 0.00 | 0.00 | 0.00 | 47 | 1018.6 |
| 20260507221829 | 20 | 315 | 1.6 | 3.2 | 0.00 | 0.00 | 0.00 | 45 | 1018.8 |
| 20260507221325 | 20 | 325 | 1.6 | 3.2 | 0.00 | 0.00 | 0.00 | 47 | 1018.8 |
| 20260507220821 | 20 | 203 | 0.0 | 1.6 | 0.00 | 0.00 | 0.00 | 47 | 1018.8 |
| 20260507220320 | 20 | 301 | 0.0 | 0.0 | 0.00 | 0.00 | 0.00 | 47 | 1018.9 |
| 20260507215816 | 20 | 312 | 0.0 | 1.6 | 0.00 | 0.00 | 0.00 | 48 | 1019.0 |
| 20260507215313 | 19 | 282 | 0.0 | 1.6 | 0.00 | 0.00 | 0.00 | 47 | 1019.0 |
| 20260507214810 | 20 | 42 | 4.8 | 4.8 | 0.00 | 0.00 | 0.00 | 50 | 1019.0 |
| 20260507214308 | 19 | 141 | 1.6 | 3.2 | 0.00 | 0.00 | 0.00 | 49 | 1019.1 |
| 20260507213802 | 20 | 299 | 3.2 | 3.2 | 0.00 | 0.00 | 0.00 | 47 | 1019.0 |
| 20260507213259 | 19 | 289 | 4.8 | 4.8 | 0.00 | 0.00 | 0.00 | 51 | 1019.1 |
| 20260507212756 | 19 | 323 | 3.2 | 4.8 | 0.00 | 0.00 | 0.00 | 51 | 1019.0 |
| 20260507212252 | 19 | 299 | 1.6 | 1.6 | 0.00 | 0.00 | 0.00 | 53 | 1019.1 |